Regional Weather Roundup
Issued by NWS

Home | Current Version | Previous Version | Graphics & Text | Print | Product List | Glossary On
Versions: 1 2 3 4 5 6 7 8 9 10 11 12 13 14 15 16 17 18 19 20 21 22 23 24 25 26 27 28 29 30 31 32 33 34 35 36 37 38 39 40 41 42 43 44 45 46 47 48 49 50
000
ASUS43 KMPX 081201
RWRMN
WEATHER ROUNDUP FOR MINNESOTA
NATIONAL WEATHER SERVICE TWIN CITIES/CHANHASSEN MN
600 AM CST MON FEB 08 2016


NOTE: "FAIR" INDICATES FEW OR NO CLOUDS BELOW 12,000 FEET WITH NO
SIGNIFICANT WEATHER AND/OR OBSTRUCTIONS TO VISIBILITY. N/A MEANS
CURRENT SKY AND/OR WEATHER CONDITIONS ARE NOT AVAILABLE.

MNZ060>063-068>070-081300-
   Twin Cities Metro

CITY           SKY/WX    TMP DP  RH WIND       PRES   REMARKS
TWIN CITIES    FLURRIES  13   5  70 NW16G26   29.85R WCI  -3
6HR MIN TEMP:  13; 6HR MAX TEMP:  16; 6HR PCP: TRACE;

ST PAUL        CLOUDY    14   5  67 NW23G31   29.86R WCI  -5
CRYSTAL        LGT SNOW  13   5  70 NW18G28   29.86R WCI  -4
BLAINE         CLOUDY    14   7  73 NW18      29.85R WCI  -3
LAKEVILLE      CLOUDY    10   7  85 NW17G26   29.83R WCI  -7
EDEN PRAIRIE   LGT SNOW  13   4  67 NW21      29.85R WCI  -5
6HR MIN TEMP:  13; 6HR MAX TEMP:  16; 6HR PCP: TRACE;

SOUTH ST PAUL  CLOUDY    15   6  68 NW17G23   29.84R WCI  -1
LAKE ELMO      CLOUDY    14   9  79 N12G25    29.83R WCI   0
$$
MNZ001>005-007-008-013>017-022>024-027-028-081300-
   Northwest Minnesota

CITY           SKY/WX    TMP DP  RH WIND       PRES   REMARKS
BEMIDJI        FLURRIES   3  -2  79 NW17G23   29.95R WCI -17
HALLOCK        CLOUDY    10   7  85 N22G32    30.12R HAZE    WCI  -9
ROSEAU         CLOUDY     7   1  78 N17       30.05R WCI -12
WARROAD        CLOUDY     3  -2  78 NW14G21   30.03R WCI -15
CROOKSTON      LGT SNOW  10   9  92 N26G36    30.12R VSB 1   WCI -11
FOSSTON        LGT SNOW   3   1  92 NW16G25   30.04R WCI -16
DETROIT LAKES  LGT SNOW   9   5  85 N25G40    30.02R WCI -13
MOORHEAD         N/A     10   9  92 N25       30.11R WCI -10
PARK RAPIDS    LGT SNOW   7  -1  70 NW17G28   29.93R WCI -12
MAHNOMEN       CLOUDY     7   2  82 N29G37    30.02R WCI -16
$$
MNZ006-009>011-018-025>026-081300-
   North Central Minnesota

CITY           SKY/WX    TMP DP  RH WIND       PRES   REMARKS
BAUDETTE       CLOUDY     2  -4  76 NW18      29.97R WCI -19
FLAG ISLAND    CLOUDY     3  -2  78 NW24      30.01R WCI -20
INTL FALLS     LGT SNOW   6   0  76 NW17G26   29.90R WCI -13
6HR MIN TEMP:   6; 6HR MAX TEMP:   8; 6HR PCP:  0.02;

WASKISH        FLURRIES   3   0  85 NW14      29.97R WCI -15
LONGVILLE      LGT SNOW   3   0  85 NW10G21   29.91R WCI -12
GRAND RAPIDS   CLOUDY     5  -2  72 NW21G26   29.86R WCI -16
CRANE LAKE     CLOUDY     7   3  85 NW9       29.87R WCI  -7
ORR            CLOUDY     7   0  72 NW13G18   29.82R HAZE    WCI  -9
COOK           LGT SNOW   7   3  85 NW9       29.84R WCI  -7
WALKER         FLURRIES   4  -2  76 NW14      29.93R WCI -14
$$
MNZ012-019>021-037-081300-
   Northeast Minnesota

CITY           SKY/WX    TMP DP  RH WIND       PRES   REMARKS
DULUTH         LGT SNOW   9   4  80 NW20G28   29.75R VSB 1   WCI -10
6HR MIN TEMP:   9; 6HR MAX TEMP:  16; 6HR PCP: TRACE;

ELY            LGT SNOW   9   7  92 NW10G17   29.78R WCI  -6
HIBBING        MIX PCPN   5   0  79 NW18      29.82R WCI -15
EVELETH        LGT SNOW   9   3  78 NW8G17    29.81S WCI  -4
DULUTH HARBOR  FLURRIES  16   7  67 NW9       29.83R WCI   4
TWO HARBORS    LGT SNOW  16   7  67 NW9G18    29.73R WCI   4
SILVER BAY     CLOUDY    16   7  67 NW8G18    29.72R WCI   5
GRAND MARAIS     N/A     12   4  70 VRB7      29.74R WCI   1
G MARAIS ARPRT LGT SNOW   3  -2  78 NW12G23   29.64S WCI -13
$$
MNZ029>031-032-039>041-046>048-054>057-064-081300-
   West Central Minnesota

CITY           SKY/WX    TMP DP  RH WIND       PRES   REMARKS
FERGUS FALLS   CLOUDY    10   7  85 N30G40    30.07R FOG     WCI -12
WHEATON        FLURRIES  16  10  79 NW26G39   30.10R WCI  -3
MORRIS         SNOW      12   9  85 N30G40    30.00R VSB 1/4 WCI  -9
ALEXANDRIA     LGT SNOW   8   1  73 N26G36    29.95R WCI -14
ELBOW LAKE     CLOUDY    10   5  80 NW26G39   30.02R WCI -11
WADENA         LGT SNOW   7   1  78 NW20G25   29.95R WCI -13
GLENWOOD       LGT SNOW   9   1  72 NW26G36   29.95R WCI -13
APPLETON       HVY SNOW  16  10  79 N33G41    30.02R VSB 1/4 WCI  -5
BENSON         LGT SNOW  12   7  79 N25G38    29.99R WCI  -8
ORTONVILLE     LGT SNOW  14   9  79 N30G38    30.04R WCI  -7
MADISON        HVY SNOW  16  12  86 N35G41    30.04R VSB 1/4 WCI  -6
WILLMAR        LGT SNOW  12   7  79 N21G35    29.96R WCI  -6
$$
MNZ033>034-036-042>043-049>051-058-059-081300-
   Central Minnesota

CITY           SKY/WX    TMP DP  RH WIND       PRES   REMARKS
ST CLOUD       CLOUDY     9   2  73 NW17G24   29.89R WCI  -9
6HR MIN TEMP:   9; 6HR MAX TEMP:  13; 6HR PCP: TRACE;

SAUK CENTRE    LGT SNOW   8   1  76 NW21G32   29.93R WCI -12
PAYNESVILLE    LGT SNOW   9   4  80 NW13G22   29.94R WCI  -6
AITKIN         MIX PCPN   9  -2  61 NW14G22   29.87R WCI  -8
PINE RIVER     CLOUDY     5   0  78 NW14G21   29.95R WCI -12
BRAINERD       MIX PCPN   6  -1  73 NW20G28   29.90R WCI -14
STAPLES        FLURRIES   7   0  72 NW20G26   29.93R WCI -13
LONG PRAIRIE   LGT SNOW   7   1  78 NW21G28   29.92R WCI -13
LITTLE FALLS   CLOUDY     9   1  72 NW15      29.92R HAZE    WCI  -8
LITCHFIELD     LGT SNOW  10   5  79 NW25G31   29.92R WCI -10
BUFFALO        CLOUDY    11   4  74 NW15G25   29.91R WCI  -6
MAPLE LAKE     LGT SNOW  11   6  81 NW15G22   29.90R WCI  -5
$$
MNZ037-044-045-052-053-081300-
   East Central Minnesota

CITY           SKY/WX    TMP DP  RH WIND       PRES   REMARKS
PRINCETON      FLURRIES  10   3  72 NW17G26   29.88R WCI  -7
MORA           CLOUDY    10   3  72 NW18      29.87R WCI  -8
CAMBRIDGE      FLURRIES  12   3  67 NW17G23   29.85R WCI  -5
RUSH CITY      CLOUDY    11   4  72 NW12G23   29.84R WCI  -3
MOOSE LAKE     LGT SNOW  10   3  72 NW13G23   29.82R WCI  -5
HINCKLEY       CLOUDY    12   5  73 NW13G23   29.84R WCI  -3
CLOQUET        FLURRIES   9   3  78 NW12G26   29.79R WCI  -6
MCGREGOR       CLOUDY     9   1  72 NW15G21   29.87R WCI  -8
$$
MNZ071>073-080-081-089-090-097-098-081300-
   Southwest Minnesota

CITY           SKY/WX    TMP DP  RH WIND       PRES   REMARKS
MONTEVIDEO     LGT SNOW  12  10  92 N28G36    30.01R WCI  -9
GRANITE FALLS  LGT SNOW  15  11  84 NW25G40   30.01R WCI  -4
CANBY          LGT SNOW  19  15  82 NW20G31   30.04R WCI   4
MARSHALL       SNOW      15  11  83 N35G44    29.97R VSB 1/2 WCI  -7
REDWOOD FALLS  LGT SNOW  13   8  81 NW28G40   29.96R WCI  -8
OLIVIA         LGT SNOW  16  10  79 NW23G36   29.95R WCI  -2
PIPESTONE      CLEAR     18  10  73 N23G33    29.98R WCI   0
WINDOM         HVY SNOW  12  10  92 NW36G43   29.91R VSB 1/4 WCI -11
WORTHINGTON    CLOUDY   N/A N/A N/A NW26      29.96R VSB 1
JACKSON        LGT SNOW  14  10  85 NW33G48   29.91R VSB 1   WCI  -8
TRACY          LGT SNOW  15  12  87 N29G44    29.97R VSB 3/4 WCI  -5
SLAYTON        LGT SNOW  14  12  94 NW26G32   29.95R WCI  -6
$$
MNZ065>067-074>077-082>085-091>093-081300-
   South Central Minnesota

CITY           SKY/WX    TMP DP  RH WIND       PRES   REMARKS
MANKATO        CLOUDY   N/A N/A N/A NW25G36   29.87R
NEW ULM        LGT SNOW  10   7  85 NW28G35   29.89R WCI -11
ST JAMES       LGT SNOW  12  10  92 NW35G43   29.92R VSB 3/4 WCI -10
FAIRMONT       CLOUDY    12   5  73 NW29G35   29.88R WCI  -9
GLENCOE        LGT SNOW  12   9  85 NW17G24   29.90R WCI  -5
FARIBAULT      LGT SNOW  12   9  85 NW15G21   29.84R WCI  -4
OWATONNA       LGT SNOW  12   7  79 NW22G29   29.82R WCI  -7
WASECA         LGT SNOW  12   9  85 NW23G30   29.86R WCI  -7
ALBERT LEA     LGT SNOW  12   9  85 NW16G25   29.81R WCI  -4
$$
MNZ078>079-086>088-094>096-081300-
   Southeast Minnesota

CITY           SKY/WX    TMP DP  RH WIND       PRES   REMARKS
ROCHESTER      LGT SNOW  13   8  81 NW22G31   29.75R WCI  -6
6HR MIN TEMP:  13; 6HR MAX TEMP:  17; 6HR PCP: TRACE;

RED WING       FLURRIES  16   9  73 NW12G20   29.80R WCI   3
STANTON        LGT SNOW  15   8  75 NW20      29.82R WCI  -2
DODGE CENTER   LGT SNOW  12   9  85 NW22      29.76R WCI  -7
WINONA         CLOUDY    19  14  79 NW18G26   29.77R WCI   4
AUSTIN         LGT SNOW  10   9  92 NW23G30   29.79R WCI -10
PRESTON        FLURRIES  13   8  80 NW14G22   29.74R WCI  -2
$$
ABBREVIATIONS USED IN REMARKS
   TC - TEMPERATURES IN CELSIUS
  WCI - WIND CHILL INDEX
   HX - HEAT INDEX
  VSB - VISIBILITY
$$



USA.gov is the U.S. government's official web portal to all federal, state and local government web resources and services.